[[{"header":{"parameterUnit":"m.s-1","parameterCategory":2,"la1":30.2991,"la2":30.254,"lo1":-89.0895,"lo2":-89.0444,"dy":0.0017,"dx":0.0017,"nx":28,"ny":28,"refTime":"2024-04-13T09:00:00:Z","depth":"0","parameterNumber":2,"parameterNumberName":"U-component_of_CURRENTS"},"data":[0,0,0,0,0,0,0,0,0,0,0,0,0,0,0,0,0,0,0,0,0,0,0,0,0,0,0,0,0,0,0,0,0,0,0,0,0,0,0,0,0,0,0,0,0,0,0,0,0,0,0,0,0,0,0,0,0,0,0.1495,0.1496,0,0.1596,0.1597,0.1599,0.1628,0.1628,0.1627,0.1626,0.181,0.1816,0.1821,0,0,0,0,0,0,0,0,0,0,0,0,0,0.1449,0.1449,0.1495,0.1496,0.1497,0.1596,0.1597,0.1599,0.1629,0.1628,0.1627,0.1626,0.1808,0.1815,0.1822,0,0,0,0,0,0,0,0,0,0,0,0,0,0.1504,0.1449,0.1495,0.1521,0.1525,0.1595,0.1597,0.16,0.1629,0.1628,0.1626,0.1625,0.1806,0.1814,0.1823,0.1899,0,0,0.1849,0.1852,0,0,0,0,0,0,0,0,0.1501,0.1506,0.1517,0.152,0.1523,0.1596,0.1649,0.1703,0.1629,0.1592,0.1626,0.1625,0.1745,0.1759,0.1783,0.1908,0.1916,0.1849,0.1855,0.1858,0.1861,0,0,0,0,0,0,0,0.1497,0.1502,0.1538,0.1518,0.1522,0.157,0.1575,0.166,0.1678,0.1596,0.1597,0.1604,0.1748,0.1775,0.1788,0.1918,0.1849,0.1857,0.1862,0.1865,0.2119,0.2121,0,0,0,0,0,0,0.1473,0.1498,0.1535,0.1541,0.1506,0.1571,0.1577,0.1576,0.1676,0.1688,0.1605,0.1605,0.1761,0.1778,0.1795,0.192,0.1858,0.1866,0.1871,0.2118,0.212,0.2122,0,0,0,0,0,0,0.1472,0.1475,0.1531,0.152,0.153,0.1572,0.1571,0.1579,0.1607,0.1681,0.1696,0.1624,0.1761,0.1783,0.1894,0.1926,0.187,0.1878,0.2116,0.2118,0.2121,0.2152,0,0,0,0,0,0,0.147,0.1474,0.1471,0.1518,0.1529,0.159,0.1572,0.1581,0.1611,0.1613,0.1703,0.1719,0.1762,0.1881,0.1902,0.1936,0.1884,0.2114,0.2117,0.212,0.2148,0.2155,0.216,0,0,0,0,0,0.1468,0.1468,0.147,0.1475,0.1522,0.1591,0.1604,0.1631,0.1613,0.1647,0.1708,0.1716,0.1914,0.1891,0.1915,0.1952,0.2112,0.2116,0.212,0.2146,0.2154,0.216,0,0,0,0,0,0,0.1453,0.1472,0.1476,0.1482,0.1539,0.1595,0.1618,0.1635,0.1707,0.1703,0.1762,0.1786,0.1892,0.192,0.1892,0.2031,0.2005,0.2014,0.2017,0.2025,0.203,0.2016,0.1891,0,0,0,0,0,0.1445,0.1446,0.1493,0.1504,0.1525,0.1571,0.1599,0.1624,0.1687,0.1714,0.1786,0.1851,0.1928,0.1972,0.2051,0.2141,0.2163,0.2171,0.2177,0.2182,0.2186,0.2269,0.2283,0.2134,0.2134,0.2134,0,0,0.1441,0.1453,0.1454,0.1501,0.1537,0.1611,0.1587,0.1635,0.1707,0.1728,0.185,0.1892,0.1959,0.2061,0.2107,0.2087,0.2233,0.2187,0.219,0.2192,0.2274,0.2289,0.2302,0.2137,0.2136,0.2136,0,0,0.1454,0.1448,0.1464,0.1523,0.1579,0.1626,0.1641,0.1715,0.1751,0.1868,0.1891,0.1951,0.2086,0.2132,0.2169,0.2256,0.2269,0.2268,0.2287,0.2368,0.2381,0.2392,0.2421,0.2435,0.2262,0.2262,0.2262,0,0.1452,0.1484,0.1489,0.1548,0.1605,0.1638,0.1712,0.1772,0.1881,0.1911,0.1914,0.2069,0.2122,0.2218,0.2239,0.2271,0.23,0.2254,0.2375,0.2388,0.2399,0.2426,0.2441,0.2264,0.2263,0.2263,0.2263,0,0.1499,0.1543,0.1566,0.1652,0.1716,0.1785,0.1867,0.1931,0.1969,0.2017,0.2113,0.218,0.2256,0.2275,0.229,0.2383,0.2371,0.2381,0.2354,0.2416,0.244,0.2455,0.2266,0.2266,0.2265,0.2265,0,0,0.1462,0.1573,0.1586,0.1656,0.1777,0.1841,0.1948,0.2048,0.2092,0.2181,0.2243,0.2347,0.2332,0.2372,0.2384,0.2436,0.2531,0.2435,0.2439,0.2457,0.2681,0.2452,0.2446,0.2568,0.2571,0.2573,0.2658,0,0.151,0.1625,0.1674,0.1826,0.1907,0.1978,0.2075,0.2161,0.2217,0.229,0.2318,0.2389,0.2386,0.2398,0.2461,0.2519,0.2576,0.2505,0.2624,0.2627,0.2412,0.2458,0.224,0.2278,0.2673,0.2676,0.2678,0,0.1545,0.1631,0.1757,0.1913,0.1948,0.2039,0.2165,0.2254,0.2335,0.2361,0.2409,0.2434,0.2512,0.2496,0.2638,0.2594,0.2645,0.2679,0.2684,0.2469,0.2426,0.2286,0.229,0.2206,0.2701,0.2699,0.2697,0,0.1523,0.1692,0.179,0.1855,0.2027,0.2081,0.2166,0.2259,0.2311,0.2388,0.2409,0.2507,0.2543,0.2645,0.2687,0.2691,0.2816,0.2839,0.2683,0.2667,0.2499,0.246,0.2427,0.2957,0.2957,0.2957,0.2956,0,0.1552,0.1642,0.1786,0.1851,0.1977,0.2079,0.2172,0.2248,0.2319,0.2363,0.2429,0.2465,0.2587,0.2652,0.2716,0.2708,0.2851,0.2684,0.2678,0.2496,0.2458,0.2389,0.2377,0.296,0.2959,0.2958,0.2958,0,0.1506,0.1599,0.174,0.1913,0.1966,0.205,0.218,0.223,0.2292,0.2348,0.2368,0.2462,0.2527,0.26,0.2738,0.2702,0.2629,0.2712,0.2442,0.2399,0.2119,0.2115,0.2029,0.1991,0.2563,0.2558,0.2554,0,0.1493,0.1549,0.1753,0.1834,0.1913,0.2035,0.21,0.2203,0.2239,0.2333,0.2348,0.2414,0.2439,0.2496,0.2437,0.2454,0.2465,0.2244,0.2201,0.2052,0.2052,0.2032,0.201,0.2013,0.2005,0.1998,0.1993,0,0.1477,0.1533,0.1646,0.1814,0.1917,0.2016,0.2108,0.213,0.2218,0.2246,0.2284,0.231,0.2285,0.2161,0.2095,0.2085,0.2053,0.2096,0.2061,0.1688,0.1557,0.1532,0.199,0.1931,0.1938,0.1942,0.1945,0.1948,0.1456,0.1521,0.166,0.1821,0.1922,0.1985,0.2009,0.2059,0.209,0.2076,0.2163,0.2086,0.1929,0.1783,0.1748,0.1457,0.1626,0.1383,0.1419,0.1435,0.1292,0.1548,0.1394,0.1397,0.1399,0.1401,0.1403,0,0.1453,0.1531,0.1665,0.1835,0.1902,0.1965,0.2005,0.1972,0.1944,0.1901,0.1888,0.162,0.1414,0.1276,0.0952,0.0817,0.0846,0.0781,0.0767,0.081,0.1133,0.0995,0.06,0.06,0.0601,0.0601,0.0601,0.0601,0.1462,0.156,0.1643,0.1784,0.1864,0.187,0.1859,0.1788,0.1719,0.1512,0.1305,0.1219,0.1018,0.0667,0.0404,0.0377,0.0405,0.0267,0.0432,0.0684,0.0746,0.0806,0.0674,0.0218,0.0218,0.0037,0.0035,0.0033]},{"header":{"parameterUnit":"m.s-1","parameterCategory":2,"la1":30.2991,"la2":30.254,"lo1":-89.0895,"lo2":-89.0444,"dy":0.0017,"dx":0.0017,"nx":28,"ny":28,"refTime":"2024-04-13T09:00:00:Z","depth":"0","parameterNumber":3,"parameterNumberName":"V-component_of_CURRENTS"},"data":[0,0,0,0,0,0,0,0,0,0,0,0,0,0,0,0,0,0,0,0,0,0,0,0,0,0,0,0,0,0,0,0,0,0,0,0,0,0,0,0,0,0,0,0,0,0,0,0,0,0,0,0,0,0,0,0,0,0,0.014,0.014,0,0.0077,0.0076,0.0075,0.004,0.0041,0.0041,0.0041,-0.0093,-0.0097,-0.01,0,0,0,0,0,0,0,0,0,0,0,0,0,0.0155,0.0155,0.014,0.014,0.0139,0.0078,0.0076,0.0075,0.004,0.0041,0.0041,0.0042,-0.0091,-0.0096,-0.0101,0,0,0,0,0,0,0,0,0,0,0,0,0,0.0121,0.0155,0.014,0.0119,0.0117,0.0078,0.0076,0.0074,0.004,0.0041,0.0041,0.0042,-0.009,-0.0096,-0.0101,-0.015,0,0,-0.012,-0.0122,0,0,0,0,0,0,0,0,0.0123,0.012,0.0122,0.012,0.0118,0.0072,0.0033,-0.0002,0.004,0.0063,0.0041,0.0042,-0.0041,-0.0051,-0.0071,-0.0157,-0.0162,-0.012,-0.0124,-0.0126,-0.0128,0,0,0,0,0,0,0,0.0125,0.0122,0.011,0.0122,0.0119,0.0087,0.0083,0.0025,0.0003,0.0061,0.006,0.0062,-0.0043,-0.0065,-0.0075,-0.0164,-0.012,-0.0125,-0.0129,-0.0131,-0.0229,-0.0228,0,0,0,0,0,0,0.0148,0.0124,0.0112,0.0108,0.0128,0.0087,0.0082,0.0082,0.0005,-0.0004,0.0061,0.006,-0.0055,-0.0068,-0.0079,-0.0103,-0.0126,-0.0132,-0.0135,-0.023,-0.0229,-0.0228,0,0,0,0,0,0,0.0148,0.0147,0.0114,0.0119,0.0114,0.0088,0.0086,0.008,0.0062,0.0007,-0.0005,0.0051,-0.0055,-0.0071,-0.0133,-0.011,-0.0134,-0.014,-0.0231,-0.023,-0.0229,-0.0175,0,0,0,0,0,0,0.0149,0.0147,0.0147,0.0121,0.0115,0.0093,0.0086,0.0079,0.0065,0.0063,-0.0007,-0.0018,-0.0056,-0.0124,-0.0139,-0.0118,-0.0144,-0.0233,-0.0231,-0.0229,-0.0178,-0.0172,-0.0167,0,0,0,0,0,0.0149,0.0149,0.0147,0.0146,0.0118,0.0093,0.0085,0.0065,0.0064,0.0051,0.0005,-0.0016,-0.0121,-0.013,-0.0147,-0.0127,-0.0234,-0.0231,-0.0229,-0.018,-0.0173,-0.0167,0,0,0,0,0,0,0.015,0.0145,0.0143,0.0139,0.0121,0.0089,0.0078,0.0067,0.002,0.0015,-0.0035,-0.0051,-0.0087,-0.0119,-0.0126,-0.0145,-0.0169,-0.017,-0.0125,-0.0119,-0.0114,-0.0075,-0.0149,0,0,0,0,0,0.0154,0.0154,0.014,0.0136,0.013,0.0104,0.0091,0.0077,0.004,0.0021,-0.0026,-0.0064,-0.0092,-0.0117,-0.0157,-0.0192,-0.017,-0.0178,-0.0172,-0.0168,-0.0145,-0.0074,-0.0059,-0.0221,-0.0221,-0.0221,0,0,0.0154,0.0152,0.0151,0.0137,0.012,0.0097,0.0096,0.0078,0.0058,0.0011,-0.004,-0.0061,-0.0098,-0.0125,-0.0141,-0.0151,-0.0116,-0.0165,-0.0161,-0.0141,-0.007,-0.0053,-0.0039,-0.022,-0.022,-0.022,0,0,0.0154,0.0152,0.0152,0.0134,0.0118,0.0095,0.0094,0.006,0.0047,-0.0004,-0.0018,-0.0016,-0.0104,-0.0091,-0.0103,-0.009,-0.0091,-0.0105,-0.005,0.002,0.0034,0.0048,0.0072,0.0088,-0.0099,-0.0099,-0.0099,0,0.0155,0.0149,0.0145,0.0132,0.012,0.0096,0.0081,0.0056,0.0005,0.0019,-0.0016,-0.0035,-0.0073,-0.0043,-0.0038,-0.0073,-0.0053,-0.0076,0.003,0.0043,0.0056,0.0079,0.0095,-0.0096,-0.0096,-0.0096,-0.0097,0,0.0149,0.0139,0.0135,0.0112,0.0096,0.0076,0.0052,0.0039,0.002,0.0017,0.0038,0.0006,0.0018,0.0009,-0.0025,0.0059,0.0035,0.0027,0.0017,0.0076,0.0095,0.0111,-0.0092,-0.0093,-0.0094,-0.0094,0,0,0.0165,0.0138,0.0135,0.013,0.0085,0.0078,0.0054,0.0055,0.009,0.0053,0.0112,0.0083,0.0116,0.011,0.0103,0.0155,0.0243,0.0127,0.013,0.0159,0.037,0.0348,0.0362,0.0255,0.0258,0.0261,0.0338,0,0.016,0.0146,0.0127,0.0103,0.0092,0.0073,0.0068,0.0073,0.0081,0.0125,0.0154,0.0188,0.0139,0.0172,0.0217,0.0244,0.0291,0.0221,0.0302,0.0304,0.0285,0.0384,0.0386,0.0456,0.0353,0.0356,0.0358,0,0.0161,0.0153,0.0139,0.0131,0.0129,0.0114,0.0148,0.0141,0.0203,0.0224,0.0285,0.0302,0.0376,0.0328,0.042,0.0376,0.038,0.0392,0.0396,0.0376,0.0315,0.0384,0.0488,0.051,0.0382,0.038,0.0379,0,0.0195,0.0163,0.0161,0.0148,0.0132,0.0147,0.0145,0.0191,0.0232,0.0314,0.0375,0.0441,0.05,0.0531,0.0527,0.049,0.0624,0.0578,0.0561,0.0557,0.0578,0.0571,0.0726,0.0661,0.0661,0.0661,0.0661,0,0.0201,0.0198,0.0183,0.0183,0.0208,0.019,0.0252,0.0269,0.0345,0.0437,0.0447,0.0542,0.056,0.0618,0.0594,0.0633,0.068,0.0605,0.0602,0.0591,0.0584,0.0615,0.0606,0.0664,0.0663,0.0663,0.0662,0,0.0234,0.0218,0.0223,0.0221,0.0226,0.0253,0.03,0.0362,0.0417,0.0542,0.0577,0.0654,0.073,0.0721,0.0782,0.0735,0.0776,0.0751,0.071,0.0702,0.0691,0.0682,0.0818,0.0849,0.0765,0.0765,0.0765,0,0.0246,0.0251,0.0263,0.0281,0.028,0.0317,0.0359,0.0401,0.0477,0.062,0.0697,0.0792,0.0882,0.0932,0.0874,0.0848,0.0827,0.081,0.0749,0.0732,0.0721,0.07,0.0716,0.0783,0.0784,0.0784,0.0784,0,0.027,0.0282,0.0292,0.0334,0.0371,0.0421,0.0482,0.0556,0.0641,0.0758,0.0917,0.0998,0.1025,0.1023,0.095,0.0911,0.0836,0.0814,0.0843,0.0805,0.0753,0.0766,0.065,0.0787,0.0787,0.0787,0.0787,0.0787,0.0296,0.0317,0.0344,0.0384,0.0435,0.0523,0.0602,0.0695,0.0839,0.1022,0.1067,0.1182,0.1125,0.104,0.1,0.0892,0.0882,0.0848,0.0852,0.0842,0.0854,0.0721,0.0821,0.0821,0.0821,0.0821,0.0821,0,0.0318,0.0346,0.0389,0.0455,0.0531,0.0549,0.0685,0.0789,0.0979,0.111,0.1248,0.1234,0.1208,0.1103,0.0964,0.0936,0.0917,0.0917,0.0912,0.0936,0.0871,0.0852,0.0909,0.0909,0.0909,0.0909,0.0909,0.0909,0.0334,0.0374,0.0398,0.052,0.0584,0.0719,0.0814,0.0972,0.1083,0.1234,0.1255,0.1257,0.1173,0.105,0.0999,0.0983,0.1016,0.0977,0.101,0.0966,0.096,0.0954,0.0937,0.1012,0.1012,0.1078,0.1079,0.1079]}],[{"header":{"parameterUnit":"m.s-1","parameterCategory":2,"la1":30.2991,"la2":30.254,"lo1":-89.0895,"lo2":-89.0444,"dy":0.0017,"dx":0.0017,"nx":28,"ny":28,"refTime":"2024-04-13T09:00:00:Z","depth":"2","parameterNumber":2,"parameterNumberName":"U-component_of_CURRENTS"},"data":[0,0,0,0,0,0,0,0,0,0,0,0,0,0,0,0,0,0,0,0,0,0,0,0,0,0,0,0,0,0,0,0,0,0,0,0,0,0,0,0,0,0,0,0,0,0,0,0,0,0,0,0,0,0,0,0,0,0,0.1289,0.1289,0,0.1367,0.1368,0.137,0.1386,0.1384,0.1383,0.1382,0.1314,0.1313,0.1313,0,0,0,0,0,0,0,0,0,0,0,0,0,0.1293,0.1292,0.1289,0.1289,0.1289,0.1366,0.1368,0.137,0.1386,0.1384,0.1383,0.1381,0.1314,0.1313,0.1313,0,0,0,0,0,0,0,0,0,0,0,0,0,0.1331,0.1292,0.1289,0.13,0.1301,0.1366,0.1368,0.1371,0.1386,0.1384,0.1382,0.138,0.1314,0.1313,0.1313,0.1349,0,0,0.131,0.131,0,0,0,0,0,0,0,0,0.1328,0.1331,0.1298,0.1299,0.1301,0.1357,0.1344,0.1353,0.1387,0.1363,0.1382,0.1379,0.1311,0.131,0.1343,0.1345,0.1342,0.131,0.131,0.1309,0.1309,0,0,0,0,0,0,0,0.1325,0.1329,0.1328,0.1298,0.13,0.1348,0.1351,0.1348,0.1351,0.1365,0.1364,0.136,0.1311,0.1344,0.1341,0.1341,0.131,0.1309,0.1309,0.1309,0.136,0.1361,0,0,0,0,0,0,0.1294,0.1326,0.1325,0.133,0.13,0.1349,0.1352,0.1348,0.1354,0.1352,0.1362,0.136,0.1347,0.1342,0.1339,0.1392,0.1309,0.1308,0.1308,0.1358,0.136,0.1362,0,0,0,0,0,0,0.1294,0.1293,0.1322,0.1323,0.1329,0.1349,0.1345,0.135,0.1368,0.1352,0.1348,0.1371,0.1345,0.134,0.132,0.1388,0.1308,0.1307,0.1356,0.1358,0.1361,0.1491,0,0,0,0,0,0,0.1294,0.1293,0.1292,0.132,0.1327,0.1337,0.1346,0.1353,0.1365,0.1365,0.1359,0.1352,0.1343,0.1322,0.1319,0.1386,0.1307,0.1353,0.1357,0.136,0.1484,0.1498,0.1509,0,0,0,0,0,0.1294,0.1294,0.1292,0.1292,0.1321,0.1336,0.1345,0.136,0.1367,0.1372,0.1369,0.1351,0.1343,0.1321,0.1319,0.1387,0.1352,0.1356,0.136,0.1479,0.1495,0.1509,0,0,0,0,0,0,0.1298,0.1296,0.1294,0.1293,0.1301,0.1335,0.1354,0.1359,0.1372,0.1378,0.1358,0.1351,0.1369,0.1347,0.1324,0.141,0.1352,0.1356,0.1444,0.1459,0.1471,0.1469,0.1306,0,0,0,0,0,0.1296,0.1293,0.1297,0.1297,0.1306,0.1333,0.1346,0.1356,0.1365,0.1371,0.1364,0.1371,0.1393,0.1393,0.1396,0.1429,0.1439,0.1475,0.1488,0.1498,0.1494,0.1592,0.1614,0.1376,0.1376,0.1376,0,0,0.1297,0.1296,0.1294,0.1297,0.1321,0.1356,0.1338,0.1363,0.1401,0.1359,0.1404,0.1403,0.1407,0.1456,0.1464,0.144,0.157,0.1504,0.1513,0.1503,0.1599,0.1623,0.1644,0.1378,0.1378,0.1377,0,0,0.1307,0.1301,0.1311,0.1328,0.1348,0.1372,0.1371,0.1402,0.1422,0.146,0.1455,0.1482,0.1503,0.1533,0.1551,0.1628,0.1628,0.1635,0.1706,0.1803,0.1824,0.1843,0.1884,0.1905,0.1649,0.1649,0.165,0,0.1312,0.1331,0.1316,0.1347,0.1376,0.1377,0.142,0.1451,0.1469,0.1488,0.1481,0.1555,0.1558,0.1632,0.1673,0.1663,0.1692,0.1655,0.1823,0.1842,0.1858,0.1896,0.1918,0.1656,0.1655,0.1655,0.1654,0,0.1339,0.137,0.1386,0.1427,0.1447,0.1488,0.1517,0.1539,0.1571,0.16,0.166,0.1681,0.1718,0.1751,0.1744,0.1864,0.1837,0.1828,0.1791,0.1891,0.1923,0.1944,0.1666,0.1663,0.1661,0.166,0,0,0.1323,0.1393,0.1402,0.1446,0.1503,0.1522,0.1585,0.1636,0.1669,0.1722,0.1781,0.1862,0.1858,0.1876,0.188,0.1971,0.213,0.1958,0.196,0.2008,0.2317,0.2036,0.2031,0.2164,0.2168,0.2172,0.2291,0,0.1362,0.1435,0.146,0.1548,0.16,0.163,0.1677,0.1718,0.1756,0.1803,0.1862,0.1916,0.1912,0.1942,0.2037,0.2097,0.2189,0.2095,0.2202,0.2204,0.1952,0.2047,0.1861,0.1929,0.2311,0.2314,0.2317,0,0.1383,0.1441,0.1526,0.1618,0.164,0.1684,0.175,0.1793,0.1851,0.1882,0.1946,0.1969,0.2088,0.2079,0.226,0.2203,0.2272,0.2325,0.2331,0.2031,0.196,0.189,0.1951,0.235,0.2348,0.2345,0.2343,0,0.137,0.1484,0.1555,0.1592,0.1688,0.1725,0.1767,0.1815,0.1855,0.1926,0.1974,0.2074,0.2156,0.2268,0.2339,0.2338,0.2516,0.253,0.234,0.232,0.2156,0.211,0.2681,0.2681,0.268,0.268,0.268,0,0.1394,0.1454,0.1558,0.1599,0.1678,0.1731,0.1794,0.183,0.1899,0.1947,0.201,0.2074,0.2223,0.2311,0.2375,0.2377,0.2551,0.2353,0.2339,0.2187,0.2145,0.2496,0.2473,0.2684,0.2683,0.2682,0.2682,0,0.1356,0.1427,0.1514,0.163,0.1672,0.1714,0.1818,0.1851,0.1917,0.1987,0.2024,0.214,0.2217,0.2285,0.2452,0.2401,0.2442,0.2402,0.2159,0.2109,0.2185,0.2167,0.2239,0.223,0.2223,0.2217,0.2212,0,0.1344,0.1386,0.1516,0.1571,0.1629,0.1713,0.1761,0.1845,0.1881,0.2009,0.2041,0.2138,0.2127,0.2184,0.2132,0.2117,0.2275,0.1928,0.1872,0.2163,0.2145,0.2139,0.2132,0.1745,0.1736,0.1729,0.1724,0,0.1329,0.1363,0.1432,0.154,0.1613,0.1689,0.1769,0.1803,0.1887,0.1927,0.1963,0.1963,0.1947,0.1799,0.172,0.171,0.1893,0.1772,0.2227,0.1813,0.1687,0.167,0.1684,0.1661,0.1667,0.1672,0.1675,0.1678,0.1308,0.1337,0.142,0.1523,0.1591,0.1645,0.1679,0.1721,0.1745,0.1735,0.1785,0.1675,0.1651,0.138,0.1316,0.1267,0.1428,0.1398,0.1427,0.1463,0.1312,0.1171,0.1021,0.1024,0.1026,0.1028,0.103,0,0.1302,0.1342,0.1414,0.1501,0.1533,0.1609,0.1671,0.1629,0.1595,0.1529,0.1451,0.1198,0.1033,0.104,0.0841,0.0775,0.0868,0.0757,0.0908,0.0966,0.1019,0.0855,0.044,0.0438,0.0437,0.0436,0,0,0.13,0.1346,0.1386,0.1438,0.1494,0.1507,0.1534,0.1442,0.1362,0.1158,0.1032,0.096,0.0972,0.0699,0.0633,0.0517,0.0759,0.048,0.0948,0.1186,0.1238,0.1366,0.117,0,0,0,0,0]},{"header":{"parameterUnit":"m.s-1","parameterCategory":2,"la1":30.2991,"la2":30.254,"lo1":-89.0895,"lo2":-89.0444,"dy":0.0017,"dx":0.0017,"nx":28,"ny":28,"refTime":"2024-04-13T09:00:00:Z","depth":"2","parameterNumber":3,"parameterNumberName":"V-component_of_CURRENTS"},"data":[0,0,0,0,0,0,0,0,0,0,0,0,0,0,0,0,0,0,0,0,0,0,0,0,0,0,0,0,0,0,0,0,0,0,0,0,0,0,0,0,0,0,0,0,0,0,0,0,0,0,0,0,0,0,0,0,0,0,-0.002,-0.0021,0,-0.0094,-0.0096,-0.0097,-0.0128,-0.0127,-0.0126,-0.0126,-0.0298,-0.0303,-0.0308,0,0,0,0,0,0,0,0,0,0,0,0,0,0.0011,0.0011,-0.002,-0.0021,-0.0021,-0.0094,-0.0096,-0.0097,-0.0128,-0.0127,-0.0126,-0.0125,-0.0296,-0.0302,-0.0309,0,0,0,0,0,0,0,0,0,0,0,0,0,-0.0032,0.0011,-0.002,-0.0041,-0.0043,-0.0094,-0.0096,-0.0098,-0.0128,-0.0127,-0.0126,-0.0125,-0.0294,-0.0302,-0.0309,-0.0378,0,0,-0.0333,-0.0337,0,0,0,0,0,0,0,0,-0.0029,-0.0034,-0.0037,-0.004,-0.0042,-0.0096,-0.0148,-0.0195,-0.0128,-0.0102,-0.0125,-0.0124,-0.0237,-0.0249,-0.0272,-0.0386,-0.0394,-0.0334,-0.0339,-0.0342,-0.0344,0,0,0,0,0,0,0,-0.0026,-0.0031,-0.0055,-0.0038,-0.0041,-0.0075,-0.008,-0.0157,-0.018,-0.0104,-0.0105,-0.0104,-0.0239,-0.0264,-0.0276,-0.0396,-0.0334,-0.0341,-0.0346,-0.0349,-0.0544,-0.0544,0,0,0,0,0,0,-0.0002,-0.0028,-0.0053,-0.0057,-0.0027,-0.0075,-0.0081,-0.0084,-0.0177,-0.0188,-0.0105,-0.0105,-0.0251,-0.0267,-0.0283,-0.0364,-0.0342,-0.035,-0.0354,-0.0543,-0.0544,-0.0544,0,0,0,0,0,0,-0.0002,-0.0004,-0.005,-0.004,-0.0047,-0.0076,-0.008,-0.0086,-0.0103,-0.0176,-0.019,-0.0114,-0.0251,-0.0272,-0.0353,-0.0371,-0.0353,-0.036,-0.0543,-0.0543,-0.0544,-0.053,0,0,0,0,0,0,-0.0001,-0.0004,-0.0004,-0.0038,-0.0046,-0.0079,-0.008,-0.0088,-0.0102,-0.0103,-0.0189,-0.0204,-0.0252,-0.0341,-0.0361,-0.0381,-0.0366,-0.0542,-0.0543,-0.0544,-0.053,-0.0531,-0.0531,0,0,0,0,0,0.0001,-0.0002,-0.0004,-0.0007,-0.0044,-0.0079,-0.0088,-0.0109,-0.0103,-0.012,-0.0176,-0.0201,-0.0359,-0.0349,-0.0372,-0.0395,-0.0542,-0.0543,-0.0544,-0.053,-0.053,-0.0531,0,0,0,0,0,0,0.0007,-0.0006,-0.0008,-0.0015,-0.0042,-0.0082,-0.0093,-0.0106,-0.0162,-0.0162,-0.0227,-0.0248,-0.0322,-0.0359,-0.0345,-0.0449,-0.0448,-0.0453,-0.0429,-0.0431,-0.0431,-0.0377,-0.0373,0,0,0,0,0,0.0012,0.0009,-0.0015,-0.0022,-0.003,-0.0061,-0.0076,-0.0091,-0.0138,-0.0159,-0.0228,-0.0289,-0.0347,-0.0387,-0.0452,-0.0524,-0.0475,-0.0545,-0.0545,-0.0545,-0.0515,-0.0447,-0.0437,-0.0548,-0.0548,-0.0548,0,0,0.0013,0.0006,0.0004,-0.002,-0.004,-0.0074,-0.0069,-0.0091,-0.0125,-0.0174,-0.0256,-0.0304,-0.0366,-0.044,-0.0475,-0.0474,-0.049,-0.0546,-0.0546,-0.0515,-0.0447,-0.0435,-0.0425,-0.0548,-0.0548,-0.0548,0,0,0.0012,0.0009,0.0005,-0.0023,-0.0046,-0.0074,-0.0076,-0.0126,-0.0147,-0.0229,-0.0258,-0.0297,-0.0429,-0.0449,-0.0479,-0.0517,-0.0494,-0.0553,-0.0519,-0.0455,-0.0444,-0.0433,-0.0356,-0.0339,-0.0553,-0.0553,-0.0553,0,0.0014,-0.0001,-0.0006,-0.0029,-0.0054,-0.0073,-0.0102,-0.0137,-0.0214,-0.0219,-0.0254,-0.036,-0.042,-0.0451,-0.0469,-0.0515,-0.047,-0.0517,-0.045,-0.0439,-0.0429,-0.0352,-0.0333,-0.0552,-0.0553,-0.0553,-0.0553,0,-0.0001,-0.002,-0.0027,-0.0065,-0.0094,-0.0123,-0.0163,-0.0192,-0.0226,-0.0253,-0.0294,-0.0362,-0.0402,-0.044,-0.048,-0.0445,-0.0434,-0.0456,-0.044,-0.0416,-0.0338,-0.0319,-0.0552,-0.0552,-0.0552,-0.0552,0,0,0.0021,-0.0027,-0.0031,-0.0055,-0.0116,-0.0139,-0.0181,-0.0209,-0.0197,-0.0276,-0.0261,-0.0359,-0.0351,-0.0379,-0.0416,-0.0375,-0.0281,-0.0388,-0.0385,-0.0293,-0.0119,-0.0153,-0.0135,-0.0292,-0.0289,-0.0287,-0.0092,0,0.0007,-0.0032,-0.006,-0.0117,-0.0145,-0.0176,-0.0206,-0.0228,-0.0248,-0.0245,-0.0258,-0.0276,-0.0342,-0.0343,-0.0315,-0.0281,-0.023,-0.033,-0.017,-0.0164,-0.0183,-0.0114,-0.0126,0.0042,-0.0073,-0.0069,-0.0067,0,-0.0,-0.0029,-0.0071,-0.0123,-0.0133,-0.0172,-0.0181,-0.0214,-0.0194,-0.0194,-0.0184,-0.0189,-0.0147,-0.0205,-0.0101,-0.0162,-0.0134,-0.0109,-0.0101,-0.0117,-0.0162,-0.0003,0.0082,-0.0034,-0.0037,-0.0039,-0.0041,0,0.0031,-0.0038,-0.0067,-0.0094,-0.0152,-0.0161,-0.0193,-0.019,-0.0172,-0.0138,-0.0085,-0.0065,-0.0009,0.0021,0.0046,-0.0007,0.0181,0.0118,0.012,0.0119,0.0152,0.0147,0.0213,0.0213,0.0213,0.0212,0.0211,0,0.0028,0.0001,-0.0053,-0.007,-0.0093,-0.0142,-0.0133,-0.0141,-0.0102,-0.0032,-0.0046,0.0048,0.0055,0.0142,0.0128,0.0203,0.0256,0.0168,0.0178,0.0151,0.0144,0.0101,0.0085,0.0219,0.0218,0.0216,0.0215,0,0.0065,0.0029,-0.0005,-0.0058,-0.0075,-0.0092,-0.0107,-0.0074,-0.0041,0.0065,0.0095,0.0189,0.0304,0.0305,0.0397,0.0342,0.0387,0.039,0.0358,0.0358,0.0265,0.0248,0.0444,0.0444,0.0445,0.0445,0.0446,0,0.0077,0.0069,0.002,0.001,-0.0019,-0.0047,-0.0039,-0.0044,0.0011,0.0168,0.0249,0.0386,0.0496,0.0599,0.0533,0.0534,0.048,0.0496,0.0371,0.0305,0.0295,0.0276,0.0258,0.0435,0.0435,0.0436,0.0436,0,0.0102,0.0098,0.0078,0.006,0.0049,0.0047,0.0058,0.0127,0.0184,0.0326,0.0536,0.0639,0.0696,0.0697,0.0632,0.0603,0.0482,0.0498,0.0504,0.0341,0.0303,0.0289,0.0272,0.0438,0.0438,0.0437,0.0437,0.0437,0.0129,0.0126,0.0117,0.0095,0.0101,0.0154,0.0212,0.0294,0.0444,0.0649,0.0709,0.0836,0.077,0.0689,0.0635,0.0534,0.0533,0.0466,0.0465,0.0463,0.039,0.035,0.0483,0.0483,0.0483,0.0483,0.0484,0,0.0147,0.0146,0.0144,0.0145,0.0189,0.017,0.0294,0.0403,0.0639,0.0745,0.0904,0.0834,0.0804,0.0704,0.0558,0.0481,0.0455,0.0447,0.0423,0.0423,0.0422,0.0344,0.0428,0.0427,0.0427,0.0426,0,0,0.0154,0.0159,0.0154,0.0212,0.0238,0.034,0.0439,0.0641,0.0752,0.0905,0.0927,0.0919,0.0803,0.0674,0.0584,0.0504,0.0476,0.0485,0.054,0.0524,0.0523,0.0447,0.0328,0,0,0,0,0]}],[{"header":{"parameterUnit":"m.s-1","parameterCategory":2,"la1":30.2991,"la2":30.254,"lo1":-89.0895,"lo2":-89.0444,"dy":0.0017,"dx":0.0017,"nx":28,"ny":28,"refTime":"2024-04-13T09:00:00:Z","depth":"4","parameterNumber":2,"parameterNumberName":"U-component_of_CURRENTS"},"data":[0,0,0,0,0,0,0,0,0,0,0,0,0,0,0,0,0,0,0,0,0,0,0,0,0,0,0,0,0,0,0,0,0,0,0,0,0,0,0,0,0,0,0,0,0,0,0,0,0,0,0,0,0,0,0,0,0,0,0.061,0.0609,0,0.0426,0.0423,0.042,0.0395,0.0397,0.04,0.0402,0.0246,0.0239,0.0233,0,0,0,0,0,0,0,0,0,0,0,0,0,0.0749,0.0748,0.061,0.0609,0.0607,0.0426,0.0423,0.042,0.0394,0.0397,0.04,0.0403,0.0248,0.024,0.0233,0,0,0,0,0,0,0,0,0,0,0,0,0,0.0634,0.0747,0.0611,0.0577,0.0573,0.0427,0.0423,0.0419,0.0394,0.0397,0.0401,0.0404,0.025,0.0241,0.0232,0.0103,0,0,0.0203,0.0198,0,0,0,0,0,0,0,0,0.064,0.0628,0.0584,0.0579,0.0574,0.0443,0.0415,0.0317,0.0393,0.0455,0.0402,0.0406,0.0316,0.0301,0.0249,0.0096,0.0089,0.0202,0.0196,0.0192,0.0189,0,0,0,0,0,0,0,0.0649,0.0634,0.0531,0.0582,0.0576,0.0506,0.0495,0.0395,0.0363,0.045,0.0449,0.0438,0.0313,0.0258,0.0245,0.0087,0.0202,0.0194,0.0188,0.0184,0.0108,0.0112,0,0,0,0,0,0,0.069,0.0643,0.0537,0.0526,0.0624,0.0502,0.0489,0.0476,0.0364,0.0352,0.0435,0.0438,0.0272,0.0256,0.024,0.0264,0.0192,0.0183,0.0178,0.0105,0.0109,0.0113,0,0,0,0,0,0,0.0694,0.0682,0.0544,0.0585,0.0564,0.0499,0.0482,0.0471,0.0454,0.0354,0.0342,0.0438,0.0275,0.0253,0.015,0.0251,0.0179,0.017,0.0101,0.0106,0.0111,0.0194,0,0,0,0,0,0,0.0698,0.0684,0.069,0.0588,0.0564,0.0462,0.0479,0.0465,0.0443,0.0445,0.035,0.0337,0.0276,0.0165,0.0141,0.0237,0.0163,0.0096,0.0103,0.011,0.0187,0.0202,0.0215,0,0,0,0,0,0.0704,0.0697,0.0691,0.0679,0.0573,0.0461,0.044,0.04,0.0441,0.0405,0.0345,0.0342,0.0199,0.0153,0.0126,0.0223,0.0092,0.0101,0.0109,0.0181,0.0199,0.0215,0,0,0,0,0,0,0.0755,0.0691,0.0683,0.0658,0.0572,0.046,0.0435,0.0416,0.0338,0.0365,0.0289,0.0267,0.0246,0.0208,0.0162,0.0239,0.0186,0.0188,0.0251,0.0267,0.028,0.0304,0.0155,0,0,0,0,0,0.0771,0.0755,0.0665,0.0642,0.061,0.0531,0.0491,0.0463,0.0383,0.0357,0.0273,0.025,0.025,0.0231,0.0179,0.0147,0.0134,0.0231,0.0245,0.0257,0.0267,0.0302,0.0319,0.0141,0.014,0.014,0,0,0.0785,0.0748,0.0741,0.0652,0.0593,0.0501,0.0514,0.046,0.041,0.0348,0.0248,0.0252,0.0247,0.0236,0.0236,0.0218,0.0304,0.0267,0.0277,0.028,0.0312,0.0329,0.0344,0.0146,0.0145,0.0144,0,0,0.0776,0.0773,0.0742,0.0657,0.0578,0.0517,0.0515,0.0401,0.0393,0.0292,0.0306,0.0342,0.0247,0.0289,0.031,0.0366,0.0364,0.042,0.0505,0.054,0.0554,0.0565,0.057,0.0582,0.0442,0.0443,0.0443,0,0.0799,0.0731,0.0709,0.0623,0.0557,0.053,0.0445,0.0409,0.0275,0.0309,0.0281,0.0308,0.0287,0.0387,0.044,0.0399,0.0408,0.043,0.0554,0.0566,0.0576,0.0578,0.059,0.0448,0.0447,0.0447,0.0446,0,0.0729,0.0663,0.0632,0.0522,0.0453,0.0375,0.0317,0.0302,0.0313,0.0305,0.0384,0.0355,0.0406,0.0462,0.0457,0.0597,0.0573,0.0548,0.0499,0.0599,0.0595,0.0606,0.0455,0.0453,0.0451,0.045,0,0,0.0787,0.062,0.0604,0.0535,0.0394,0.0337,0.0308,0.0295,0.0363,0.0325,0.0392,0.0475,0.0547,0.058,0.063,0.0691,0.0778,0.0678,0.0677,0.066,0.0848,0.0759,0.0761,0.0781,0.0783,0.0785,0.0811,0,0.0727,0.0558,0.0504,0.0357,0.025,0.0243,0.0227,0.0248,0.029,0.0333,0.0467,0.0528,0.0572,0.0648,0.0717,0.0755,0.0813,0.0772,0.0773,0.0773,0.0664,0.0773,0.0794,0.0819,0.0821,0.0823,0.0824,0,0.0667,0.0543,0.0383,0.0289,0.0265,0.0219,0.0267,0.0251,0.0371,0.0431,0.0559,0.0613,0.0748,0.0737,0.0867,0.0845,0.0868,0.0886,0.0886,0.0781,0.0705,0.0703,0.0843,0.0841,0.084,0.0839,0.0838,0,0.0679,0.0491,0.0375,0.0301,0.018,0.0221,0.0232,0.0322,0.0363,0.051,0.0568,0.0711,0.0787,0.0845,0.0902,0.0898,0.0989,0.0964,0.0904,0.0896,0.0923,0.0909,0.1043,0.1043,0.1043,0.1043,0.1043,0,0.0621,0.0536,0.0389,0.0308,0.0267,0.0234,0.0298,0.0364,0.0457,0.0531,0.0638,0.0709,0.0826,0.0881,0.0909,0.0939,0.0994,0.0939,0.0912,0.0958,0.0949,0.0929,0.0915,0.1044,0.1044,0.1043,0.1043,0,0.0649,0.053,0.0384,0.0269,0.0252,0.0247,0.0283,0.0341,0.0464,0.0543,0.059,0.0726,0.0823,0.0882,0.0969,0.0952,0.0972,0.0961,0.0998,0.0968,0.0851,0.0842,0.0904,0.0902,0.09,0.0898,0.0896,0,0.064,0.0555,0.0365,0.0276,0.0232,0.0222,0.0228,0.033,0.0375,0.055,0.057,0.0709,0.0791,0.0838,0.0906,0.0931,0.0928,0.0924,0.092,0.0877,0.0845,0.084,0.0834,0.0893,0.0892,0.0892,0.0891,0,0.0616,0.0565,0.0435,0.0228,0.0175,0.0138,0.0171,0.0198,0.0341,0.0435,0.0564,0.0644,0.0737,0.0807,0.0834,0.0849,0.0919,0.0902,0.0907,0.0902,0.0864,0.0833,0.083,0.0884,0.0885,0.0885,0.0886,0,0.0621,0.0526,0.0341,0.0163,0.0092,0.0068,0.0098,0.0152,0.022,0.0419,0.0455,0.061,0.073,0.0763,0.0779,0.0793,0.0793,0.0774,0.0785,0.0794,0.0748,0.0682,0.0645,0,0,0,0,0,0.0598,0.046,0.028,0.0085,0.0033,0.0003,0.004,0.009,0.0227,0.0293,0.0384,0.0473,0.058,0.0643,0.0639,0.0706,0.0767,0.0695,0.0742,0.0842,0.0851,0.0807,0,0,0,0,0,0,0.0557,0.0413,0.0249,0.0065,-0.0038,-0.0068,-0.0029,0.0057,0.0103,0.025,0.0301,0.0424,0.051,0.0576,0.0626,0.0642,0.0656,0.0776,0.0774,0.0837,0.0845,0.0852,0.081,0,0,0,0,0]},{"header":{"parameterUnit":"m.s-1","parameterCategory":2,"la1":30.2991,"la2":30.254,"lo1":-89.0895,"lo2":-89.0444,"dy":0.0017,"dx":0.0017,"nx":28,"ny":28,"refTime":"2024-04-13T09:00:00:Z","depth":"4","parameterNumber":3,"parameterNumberName":"V-component_of_CURRENTS"},"data":[0,0,0,0,0,0,0,0,0,0,0,0,0,0,0,0,0,0,0,0,0,0,0,0,0,0,0,0,0,0,0,0,0,0,0,0,0,0,0,0,0,0,0,0,0,0,0,0,0,0,0,0,0,0,0,0,0,0,0.0028,0.0028,0,0.0102,0.0103,0.0105,0.0124,0.0123,0.0122,0.0121,0.0303,0.0308,0.0314,0,0,0,0,0,0,0,0,0,0,0,0,0,0.0018,0.0018,0.0027,0.0028,0.0028,0.0102,0.0103,0.0105,0.0124,0.0123,0.0121,0.012,0.0301,0.0308,0.0315,0,0,0,0,0,0,0,0,0,0,0,0,0,0.0056,0.0018,0.0027,0.0042,0.0044,0.0101,0.0103,0.0105,0.0124,0.0123,0.0121,0.012,0.0299,0.0307,0.0316,0.04,0,0,0.0342,0.0346,0,0,0,0,0,0,0,0,0.0053,0.0057,0.004,0.0041,0.0043,0.0097,0.0166,0.0207,0.0125,0.01,0.0121,0.0119,0.0241,0.0254,0.0279,0.0408,0.0416,0.0343,0.0348,0.0352,0.0354,0,0,0,0,0,0,0,0.0051,0.0054,0.0063,0.004,0.0042,0.0084,0.0088,0.0175,0.0185,0.0102,0.0102,0.0101,0.0243,0.027,0.0283,0.0419,0.0343,0.035,0.0356,0.0359,0.0608,0.0609,0,0,0,0,0,0,0.0025,0.0051,0.0061,0.0065,0.0038,0.0085,0.0089,0.0086,0.0182,0.0192,0.0103,0.0102,0.0256,0.0273,0.029,0.041,0.0352,0.036,0.0365,0.0606,0.0608,0.061,0,0,0,0,0,0,0.0025,0.0025,0.0057,0.0055,0.0061,0.0085,0.0083,0.0088,0.0106,0.018,0.0193,0.0112,0.0256,0.0278,0.0388,0.0417,0.0364,0.0372,0.0605,0.0607,0.0609,0.0642,0,0,0,0,0,0,0.0024,0.0025,0.0024,0.0053,0.006,0.0099,0.0084,0.009,0.0105,0.0105,0.0194,0.0209,0.0256,0.0375,0.0397,0.0428,0.0379,0.0603,0.0606,0.0608,0.0639,0.0645,0.065,0,0,0,0,0,0.0024,0.0022,0.0024,0.0025,0.0055,0.01,0.011,0.0126,0.0107,0.0133,0.0198,0.0206,0.0405,0.0385,0.041,0.0444,0.0602,0.0605,0.0608,0.0637,0.0644,0.065,0,0,0,0,0,0,0.002,0.0024,0.0026,0.0027,0.0064,0.0101,0.0116,0.0125,0.0194,0.019,0.0253,0.0277,0.0378,0.0408,0.0384,0.0518,0.0493,0.0502,0.0507,0.0514,0.052,0.0497,0.0386,0,0,0,0,0,0.0017,0.0017,0.0041,0.0047,0.0057,0.0087,0.0105,0.0117,0.0172,0.0197,0.0265,0.0332,0.0413,0.0459,0.0536,0.0629,0.059,0.0656,0.0661,0.0665,0.0662,0.0595,0.0593,0.062,0.062,0.062,0,0,0.0017,0.002,0.002,0.0047,0.0069,0.0121,0.0096,0.0121,0.0184,0.0212,0.0323,0.0367,0.0443,0.0546,0.059,0.0574,0.0645,0.0669,0.0673,0.0667,0.0598,0.0595,0.0592,0.0622,0.0622,0.0621,0,0,0.0025,0.0019,0.0027,0.0069,0.0098,0.0131,0.0136,0.0184,0.022,0.0333,0.0355,0.0405,0.0557,0.0593,0.0637,0.0716,0.0678,0.0739,0.0755,0.069,0.0686,0.0682,0.0651,0.0644,0.0737,0.0737,0.0737,0,0.0026,0.0049,0.0044,0.0084,0.0131,0.0137,0.0195,0.0245,0.0333,0.0368,0.0375,0.0518,0.0576,0.0662,0.0694,0.0727,0.069,0.0727,0.0693,0.0688,0.0683,0.0652,0.0644,0.0739,0.0739,0.0739,0.0739,0,0.0058,0.0094,0.0107,0.0167,0.0217,0.0265,0.0329,0.0382,0.0421,0.0463,0.0549,0.0607,0.067,0.0698,0.0741,0.0745,0.0732,0.0706,0.0667,0.0682,0.065,0.064,0.0742,0.0741,0.0741,0.074,0,0,0.0034,0.0112,0.0124,0.0186,0.027,0.0321,0.0414,0.0501,0.0533,0.0609,0.0642,0.0767,0.073,0.0773,0.0785,0.0744,0.0697,0.0719,0.0714,0.0674,0.0571,0.0572,0.0561,0.0652,0.065,0.0649,0.0569,0,0.0075,0.0158,0.0199,0.0329,0.039,0.045,0.054,0.0613,0.0654,0.0685,0.0701,0.0751,0.0779,0.0781,0.0747,0.0711,0.0671,0.0723,0.0576,0.0572,0.0557,0.0549,0.0643,0.0561,0.0559,0.0557,0.0556,0,0.0106,0.0168,0.0272,0.0416,0.0446,0.0532,0.064,0.0722,0.0754,0.077,0.0772,0.0759,0.0757,0.0734,0.0669,0.0698,0.0643,0.0599,0.0594,0.0572,0.0554,0.054,0.0538,0.054,0.0541,0.0542,0.0543,0,0.0094,0.0236,0.0321,0.0376,0.0518,0.0591,0.068,0.0743,0.0787,0.0793,0.0775,0.076,0.074,0.0663,0.0613,0.0624,0.0494,0.0487,0.0438,0.0438,0.0445,0.0449,0.0399,0.0399,0.0399,0.0399,0.04,0,0.0126,0.0209,0.033,0.0383,0.052,0.0613,0.0715,0.0778,0.0795,0.0813,0.0804,0.0774,0.0712,0.064,0.0581,0.0492,0.0468,0.0437,0.0407,0.0468,0.0476,0.0439,0.0445,0.0396,0.0397,0.0398,0.0398,0,0.0099,0.0169,0.0284,0.0439,0.0511,0.0606,0.0762,0.0799,0.0826,0.0822,0.0818,0.0775,0.0703,0.063,0.0503,0.0464,0.0365,0.0332,0.0423,0.0401,0.0363,0.0372,0.0267,0.0266,0.0265,0.0264,0.0264,0,0.0098,0.014,0.0304,0.0388,0.0474,0.0628,0.0715,0.0808,0.0822,0.0823,0.0793,0.0734,0.0699,0.0526,0.0463,0.034,0.0327,0.0283,0.0315,0.0362,0.0344,0.0354,0.0364,0.0263,0.0263,0.0262,0.0262,0,0.0102,0.0131,0.0209,0.0369,0.0494,0.0625,0.0749,0.0749,0.0812,0.0821,0.0754,0.0686,0.06,0.0507,0.0418,0.0331,0.0315,0.0275,0.0277,0.0307,0.0356,0.0341,0.0352,0.026,0.026,0.026,0.026,0,0.0093,0.0131,0.0217,0.0374,0.0507,0.0603,0.0675,0.0718,0.0747,0.073,0.0707,0.0638,0.061,0.0501,0.0412,0.0337,0.0324,0.03,0.03,0.0302,0.0347,0.0417,0.0304,0,0,0,0,0,0.0101,0.0139,0.0249,0.0395,0.0504,0.0593,0.069,0.0728,0.0762,0.0703,0.0705,0.0625,0.0516,0.0476,0.0396,0.0405,0.0316,0.031,0.0289,0.0246,0.0248,0.0296,0,0,0,0,0,0,0.0111,0.0173,0.0228,0.0382,0.047,0.0591,0.0646,0.0664,0.0637,0.065,0.0589,0.0591,0.0484,0.0544,0.0383,0.0367,0.0341,0.0272,0.027,0.0244,0.0247,0.0249,0.0299,0,0,0,0,0]}]]